Skip to main content.
^^
Station Historical Data
 
Daily Summary for December 15, 2018 Units:  Metric    English   Both
« Previous Day
Next Day »
Daily Weekly Monthly Yearly Custom
  Current: High: Low: Average:
Temperature: 2.4 °C 2.4 °C 0.4 °C 1.3 °C
Dew Point: 0.3 °C 0.3 °C -2.3 °C -1.3 °C
Humidity: 86% 86% 81% 83%
Wind Speed: 22.5km/h 22.5km/h 1.6km/h 8.1km/h
Wind Gust: 32.2km/h 45.1km/h - -
WindSSE - - SE
Pressure: 1013.8 hPa 1022.4 hPa 1013.8 hPa -
Precipitation: 0.0 mm      
Historical Graphs
 
 
Tabular Data for December 15, 2018
Time Temperature Dew Point Pressure Wind Wind Speed Wind Gust Humidity Rainfall Rate (Hourly) solar Conditions
00:00 0.6 °C -1.8 °C 1022.4 hPa SE 3.2 km/h 12.9 km/h 84% 0.0 mm 0.00 W/m2 BKN
00:10 0.6 °C -2.0 °C 1022.3 hPa SE 3.2 km/h 11.3 km/h 83% 0.0 mm 0.00 W/m2 BKN
00:20 0.6 °C -2.0 °C 1022.1 hPa SE 3.2 km/h 14.5 km/h 83% 0.0 mm 0.00 W/m2 BKN
00:30 0.7 °C -2.1 °C 1021.9 hPa SE 3.2 km/h 20.9 km/h 82% 0.0 mm 0.00 W/m2 BKN
00:40 0.6 °C -2.1 °C 1021.9 hPa SE 3.2 km/h 12.9 km/h 82% 0.0 mm 0.00 W/m2 BKN
00:50 0.6 °C -2.2 °C 1021.9 hPa SE 3.2 km/h 12.9 km/h 82% 0.0 mm 0.00 W/m2 BKN
01:00 0.5 °C -2.2 °C 1021.8 hPa ESE 9.7 km/h 19.3 km/h 82% 0.0 mm 0.00 W/m2 BKN
01:10 0.4 °C -2.3 °C 1021.6 hPa East 4.8 km/h 14.5 km/h 82% 0.0 mm 0.00 W/m2 BKN
01:20 0.6 °C -2.2 °C 1021.7 hPa East 3.2 km/h 20.9 km/h 82% 0.0 mm 0.00 W/m2 BKN
01:30 0.6 °C -2.3 °C 1021.5 hPa ESE 8.0 km/h 19.3 km/h 81% 0.0 mm 0.00 W/m2 BKN
01:40 0.7 °C -2.2 °C 1021.4 hPa ESE 12.9 km/h 20.9 km/h 81% 0.0 mm 0.00 W/m2 BKN
01:50 0.7 °C -2.2 °C 1021.5 hPa ESE 8.0 km/h 20.9 km/h 81% 0.0 mm 0.00 W/m2 BKN
02:00 0.8 °C -2.1 °C 1021.5 hPa SE 3.2 km/h 19.3 km/h 81% 0.0 mm 0.00 W/m2 BKN
02:10 0.8 °C -2.1 °C 1021.4 hPa SSE 4.8 km/h 19.3 km/h 81% 0.0 mm 0.00 W/m2 BKN
02:20 0.8 °C -2.1 °C 1021.0 hPa SSE 3.2 km/h 12.9 km/h 81% 0.0 mm 0.00 W/m2 BKN
02:30 0.8 °C -1.9 °C 1021.0 hPa SE 4.8 km/h 20.9 km/h 82% 0.0 mm 0.00 W/m2 BKN
02:40 0.8 °C -1.9 °C 1020.8 hPa SE 4.8 km/h 20.9 km/h 82% 0.0 mm 0.00 W/m2 BKN
02:50 0.8 °C -1.9 °C 1020.7 hPa SSE 1.6 km/h 11.3 km/h 82% 0.0 mm 0.00 W/m2 BKN
03:00 0.8 °C -1.9 °C 1020.6 hPa SSE 4.8 km/h 19.3 km/h 82% 0.0 mm 0.00 W/m2 BKN
03:10 0.8 °C -1.9 °C 1020.7 hPa SSE 8.0 km/h 19.3 km/h 82% 0.0 mm 0.00 W/m2 BKN
03:20 0.8 °C -1.9 °C 1020.4 hPa SE 3.2 km/h 14.5 km/h 82% 0.0 mm 0.00 W/m2 BKN
03:30 0.8 °C -1.9 °C 1020.2 hPa SE 3.2 km/h 20.9 km/h 82% 0.0 mm 0.00 W/m2 BKN
03:40 0.8 °C -1.9 °C 1020.1 hPa SE 4.8 km/h 16.1 km/h 82% 0.0 mm 0.00 W/m2 BKN
03:50 0.8 °C -1.9 °C 1019.9 hPa SSE 4.8 km/h 19.3 km/h 82% 0.0 mm 0.00 W/m2 BKN
04:00 0.8 °C -1.9 °C 1019.7 hPa SE 3.2 km/h 16.1 km/h 82% 0.0 mm 0.00 W/m2 BKN
04:10 0.9 °C -1.8 °C 1019.7 hPa ESE 4.8 km/h 14.5 km/h 82% 0.0 mm 0.00 W/m2 BKN
04:20 0.9 °C -1.8 °C 1019.7 hPa ESE 1.6 km/h 12.9 km/h 82% 0.0 mm 0.00 W/m2 BKN
04:30 0.9 °C -1.8 °C 1019.5 hPa SE 8.0 km/h 20.9 km/h 82% 0.0 mm 0.00 W/m2 BKN
04:40 1.0 °C -1.7 °C 1019.4 hPa SSE 4.8 km/h 14.5 km/h 82% 0.0 mm 0.00 W/m2 BKN
04:50 1.0 °C -1.7 °C 1019.1 hPa ESE 8.0 km/h 20.9 km/h 82% 0.0 mm 0.00 W/m2 BKN
05:00 1.0 °C -1.7 °C 1019.1 hPa ESE 12.9 km/h 20.9 km/h 82% 0.0 mm 0.00 W/m2 BKN
05:10 0.9 °C -1.8 °C 1018.8 hPa ESE 3.2 km/h 16.1 km/h 82% 0.0 mm 0.00 W/m2 BKN
05:20 0.9 °C -1.7 °C 1018.9 hPa SE 4.8 km/h 19.3 km/h 83% 0.0 mm 0.00 W/m2 BKN
05:30 0.8 °C -1.7 °C 1018.6 hPa SSE 4.8 km/h 12.9 km/h 83% 0.0 mm 0.00 W/m2 BKN
05:40 0.9 °C -1.4 °C 1018.3 hPa SE 4.8 km/h 12.9 km/h 84% 0.0 mm 0.00 W/m2 BKN
05:50 1.0 °C -1.6 °C 1018.3 hPa SE 4.8 km/h 19.3 km/h 83% 0.0 mm 0.00 W/m2 BKN
06:00 1.1 °C -1.3 °C 1018.2 hPa SE 3.2 km/h 14.5 km/h 84% 0.0 mm 0.00 W/m2 BKN
06:10 1.1 °C -1.3 °C 1018.1 hPa South 8.0 km/h 20.9 km/h 84% 0.0 mm 0.00 W/m2 BKN
06:20 1.3 °C -1.2 °C 1018.0 hPa SSE 9.7 km/h 25.7 km/h 83% 0.0 mm 0.00 W/m2 BKN
06:30 1.4 °C -1.1 °C 1017.9 hPa SSE 8.0 km/h 20.9 km/h 83% 0.0 mm 0.00 W/m2 BKN
06:40 1.6 °C -1.2 °C 1017.7 hPa SSE 8.0 km/h 25.7 km/h 82% 0.0 mm 0.00 W/m2 BKN
06:50 1.6 °C -1.2 °C 1017.6 hPa SSE 8.0 km/h 20.9 km/h 82% 0.0 mm 0.00 W/m2 BKN
07:00 1.7 °C -1.1 °C 1017.6 hPa South 11.3 km/h 25.7 km/h 82% 0.0 mm 0.00 W/m2 BKN
07:10 1.7 °C -1.0 °C 1017.5 hPa SSE 11.3 km/h 24.1 km/h 82% 0.0 mm 0.00 W/m2 BKN
07:20 1.8 °C -0.9 °C 1017.4 hPa South 11.3 km/h 24.1 km/h 82% 0.0 mm 0.00 W/m2 BKN
07:30 1.8 °C -0.9 °C 1017.3 hPa SSE 9.7 km/h 20.9 km/h 82% 0.0 mm 0.00 W/m2 BKN
07:40 1.9 °C -0.8 °C 1017.2 hPa SSE 14.5 km/h 20.9 km/h 82% 0.0 mm 0.00 W/m2 BKN
07:50 1.9 °C -0.8 °C 1017.1 hPa SSE 8.0 km/h 24.1 km/h 82% 0.0 mm 0.00 W/m2 BKN
08:00 1.9 °C -0.7 °C 1016.8 hPa SSE 11.3 km/h 24.1 km/h 83% 0.0 mm 0.00 W/m2 BKN
08:10 1.9 °C -0.7 °C 1016.9 hPa SSE 8.0 km/h 29.0 km/h 83% 0.0 mm 0.00 W/m2 -SG
08:20 1.8 °C -0.6 °C 1016.8 hPa SSE 14.5 km/h 24.1 km/h 84% 0.0 mm 0.00 W/m2 -SG
08:30 1.8 °C -0.6 °C 1016.6 hPa SSE 12.9 km/h 22.5 km/h 84% 0.0 mm 7.00 W/m2 -SG
08:40 1.9 °C -0.6 °C 1016.5 hPa SSE 9.7 km/h 24.1 km/h 84% 0.0 mm 12.00 W/m2 -SG
08:50 1.9 °C -0.5 °C 1016.3 hPa SSE 11.3 km/h 33.8 km/h 84% 0.0 mm 16.00 W/m2 -SG
09:00 2.0 °C -0.4 °C 1016.1 hPa SSE 9.7 km/h 33.8 km/h 84% 0.0 mm 19.00 W/m2 -SG
09:10 2.1 °C -0.3 °C 1015.8 hPa SSE 12.9 km/h 30.6 km/h 84% 0.0 mm 21.00 W/m2 BKN
09:20 2.2 °C -0.3 °C 1015.7 hPa SSE 12.9 km/h 29.0 km/h 84% 0.0 mm 26.00 W/m2 BKN
09:30 2.2 °C -0.3 °C 1015.5 hPa SSE 9.7 km/h 29.0 km/h 84% 0.0 mm 26.00 W/m2 BKN
09:40 2.2 °C -0.3 °C 1015.4 hPa SSE 16.1 km/h 35.4 km/h 84% 0.0 mm 26.00 W/m2 BKN
09:50 2.2 °C -0.2 °C 1015.3 hPa SSE 14.5 km/h 37.0 km/h 84% 0.0 mm 25.00 W/m2 BKN
10:00 2.3 °C 0.0 °C 1015.2 hPa SSE 16.1 km/h 29.0 km/h 85% 0.0 mm 25.00 W/m2 BKN
10:10 2.1 °C 0.1 °C 1014.9 hPa SSE 14.5 km/h 40.2 km/h 86% 0.0 mm 26.00 W/m2 -RA
10:20 2.1 °C 0.0 °C 1014.6 hPa SSE 12.9 km/h 30.6 km/h 86% 0.0 mm 30.00 W/m2 -RA
10:30 2.2 °C 0.1 °C 1014.4 hPa SSE 19.3 km/h 45.1 km/h 86% 0.0 mm 39.00 W/m2 -RA
10:40 2.3 °C 0.2 °C 1014.3 hPa SSE 11.3 km/h 38.6 km/h 86% 0.0 mm 46.00 W/m2 -RA
10:50 2.3 °C 0.2 °C 1014.0 hPa SSE 11.3 km/h 41.8 km/h 86% 0.0 mm 39.00 W/m2 -RA
11:00 2.4 °C 0.3 °C 1013.8 hPa SSE 22.5 km/h 32.2 km/h 86% 0.0 mm 40.00 W/m2 -RA
Compliments of Weather Underground - 1.25 mb

Contact Us | Back to Top
Powered by Weather Display v10.37S build 84

Never base important decisions on this or any weather information obtained from the Internet.
Weather data on this site is not quality controlled and continuity of service is not guaranteed.


xhtml  css